Regional Weather Roundup
Issued by NWS Charleston, SC

Current Version | Previous Version | Graphics & Text | Print | Product List | Glossary On
Versions: 1 2 3 4 5 6 7 8 9 10 11 12 13 14 15 16 17 18 19 20 21 22 23 24 25 26 27 28 29 30 31 32 33 34 35 36 37 38 39 40 41 42 43 44 45 46 47 48 49 50
000
ASUS42 KCHS 182338
RWRCHS

REGIONAL WEATHER ROUNDUP
NATIONAL WEATHER SERVICE CHARLESTON SC
700 PM EDT MON SEP 18 2017

NOTE: "FAIR" INDICATES FEW OR NO CLOUDS BELOW 12,000 FEET WITH NO
SIGNIFICANT WEATHER AND/OR OBSTRUCTIONS TO VISIBILITY.

NOT ALL STATIONS ARE QUALITY CONTROLLED. USE DATA WITH CAUTION...
ESPECIALLY DEWPOINT OBSERVATIONS.

SCZ027-030-031-034>040-042>050-190000-
...SOUTHEAST SOUTH CAROLINA...

CITY           SKY/WX    TMP DP  RH WIND       PRES   REMARKS
N CHARLESTON   PTCLDY    81  64  56 NE6       29.95R
WATERFRONT PRK   N/A     78  73  84 SE7       29.79R
JOHNS ISLAND   FAIR      77  73  88 CALM      29.95F
PINOPOLIS        N/A     82  72  69 NE6       29.89R
MONCKS CORNER  FAIR      75  70  83 CALM      29.95S
SUMMERVILLE    FAIR      79  70  73 CALM      29.96S
BEAUFORT MCAS  CLEAR     83  69  62 NE3       29.95R
BEAUFORT ARPT  FAIR      82  64  54 N7        29.94S
HILTON HEAD IS CLEAR     84  68  58 N6        29.95S
WALTERBORO     CLEAR     81  68  65 CALM      29.96S
ALLENDALE      NOT AVBL

...SOUTHERN MIDLANDS AND PEE DEE...

CITY           SKY/WX    TMP DP  RH WIND       PRES   REMARKS
GEORGETOWN     FAIR      75  73  94 CALM      29.95S
KINGSTREE      FAIR      73  70  88 CALM      29.95S
ORANGEBURG     CLEAR     83  66  56 E3        29.96R
BARNWELL       FAIR      84  70  61 CALM      29.96S
AIKEN          FAIR      79  64  61 CALM      30.00S
MANNING        FAIR      77  63  61 CALM      29.95S
COLUMBIA       PTCLDY    86  65  49 NE3       29.95S
SUMTER         PTCLDY    82  64  53 NE6       29.93S
FLORENCE       CLEAR     81  65  58 N5        29.95S
MYRTLE BEACH   CLEAR     81  68  64 N6        29.94S
N MYRTLE BEACH CLEAR     79  68  69 N5        29.93S

$$

GAZ063-065-086>088-099>101-113>116-118-119-134>141-150-190000-
...SOUTHEAST GEORGIA...

CITY           SKY/WX    TMP DP  RH WIND       PRES   REMARKS
SAVANNAH ARPT  PTCLDY    85  66  53 NE6       29.95S
HUNTER AAF     CLEAR     85  66  52 NE6       29.93R
FORT STEWART   CLEAR     85  65  50 NE5       29.93S
STATESBORO     CLEAR     80  68  65 CALM      29.96R
SYLVANIA       PTCLDY    79  72  78 CALM      29.97R
CLAXTON        FAIR      80  73  79 CALM      29.96R

...CSRA...CENTRAL AND FAR SOUTHEAST GEORGIA...

CITY           SKY/WX    TMP DP  RH WIND       PRES   REMARKS
THOMSON        PTCLDY    81  69  66 SE3       30.01S
AUGUSTA-BUSH   PTCLDY    85  70  60 CALM      29.95R
AUGUSTA-DANIEL MOCLDY    87  64  46 N6        29.97R
SWAINSBORO     FAIR      82  73  74 CALM      29.97S
VIDALIA        CLEAR     82  72  69 CALM      29.96S
EASTMAN        FAIR      85  53  32 CALM      29.99R
HAZLEHURST     FAIR      83  60  45 CALM      29.95S
ALMA           CLEAR     85  67  54 CALM      29.96R
WAYCROSS       CLEAR     83  67  60 CALM      29.96R
JESUP          NOT AVBL
BAXLEY         FAIR      81  66  61 CALM      29.96R
BRUNSWICK      CLEAR     81  64  57 E3        29.96S
SAINT SIMONS   CLEAR     81  70  69 E7        29.95S

$$

SCZ027-028-034-036>038-045-046-048>050-GAZ119-141-190000-
...LAKE AND SUPPLEMENTAL COASTAL OBSERVATIONS...

STATION/POSITION TIME  TEMP    WIND        PRES    WAVE   SWELL
                       AIR SEA DIR/SP/G            HT/PER HT/PER/DIR
                 (UTC) (F)     (DEG/KT/KT) (MB)    (FT/S) (FT/S/D)
WINYAH BAY       2245   77     130/  4     1014.0S
LAKE MURRAY      2320   84      CALM  /  1 1013.5S
ACE BASIN NERRS  2245   84      10/  1     1014.0S
FORT PULASKI     2300   83 80   90/  3/  4 1014.5
SAPELO ISLAND    2300   82        CALM     1014.0

$$

ANZ835-935-AMZ111-154-330-350-352-354-370-450-454-472-190000-
...C-MAN AND BUOY OBSERVATIONS...

STATION/POSITION TIME  TEMP    WIND        PRES    WAVE   SWELL
                       AIR SEA DIR/SP/G            HT/PER HT/PER/DIR
                 (UTC) (F)     (DEG/KT/KT) (MB)    (FT/S) (FT/S/D)
BUOY 41004       2310   78 83   50/ 10/ 12 1013.2
BUOY 41008       2250   80 80  120/  6/  8 1013.8S   4/10   3/100/10
FOLLY BEACH CMAN 2300   77     140/  4/  5 1015.0R
CAPERS NEARSHORE 2308   76 79  140/  4/  8 1014.0R
FRIPP NEARSHORE  2308   80     130/ 10/ 12 1018.3F


STATION/POSITION TIME  TEMP    WIND        PRES    WAVE   SWELL
                       AIR SEA DIR/SP/G            HT/PER HT/PER/DIR
                 (UTC) (F)     (DEG/KT/KT) (MB)    (FT/S) (FT/S/D)
5E ST. MARYS GA  2230      82                N/A     5/13   2/ 80/13
FRYING PAN BUOY  2310   80 82  340/ 14/ 17 1012.4
BUOY 41025       2250   76 83  350/ 27/ 31 1009.1S  11/13   8/110/13
CAPE LOOKOUT NC  2300   78     360/ 17/ 21 1011.6R
BUOY 41002       2250   80 80  340/ 17/ 21 1009.3R  12/12  10/ 60/12
BUOY 41010       2310      83   10/ 12/ 16 1012.7
ST AUGUSTINE FL  2300   79 83   30/ 13/ 14 1014.6R


$$




USA.gov is the U.S. government's official web portal to all federal, state and local government web resources and services.